RH
87 85 83 82 81 80 79 78 77 77 76 74 70 66 64 65 62 58 57 55 52 47 41 37 33 31 28 24 22 18 33 69 82 70 66 66 64 67 83 102 105 101 105 105 102 110 114 105 98 92 89 90 89 87 85 87 93 98 102 104 104 105 105 104 101 101 103 101 100 101 102 103 102 99 92 81 67 53 44 38 35 32 30 30 31
88 86 84 84 83 82 80 79 79 79 77 73 69 68 68 67 62 58 54 49 43 38 34 31 28 26 23 22 20 15 49 98 101 93 95 89 86 84 84 95 102 100 101 103 102 108 111 105 101 99 97 96 94 94 95 98 104 107 107 104 101 102 102 101 100 99 101 102 102 101 99 94 87 76 64 53 44 38 35 32 31 31 32 34 35
88 87 85 84 83 82 82 83 83 81 79 75 73 73 70 65 59 52 45 38 34 30 27 25 22 22 18 18 19 14 39 87 102 100 101 99 98 95 93 92 93 101 102 101 103 104 106 104 100 100 99 99 99 101 104 106 108 107 105 102 101 103 103 102 103 101 100 99 94 85 75 67 58 51 45 39 36 34 33 32 33 35 36 38 40
87 86 85 85 85 85 86 86 85 83 80 78 75 71 64 56 48 40 34 30 27 23 21 20 17 18 17 15 20 19 23 48 77 95 99 100 99 100 102 85 78 99 104 100 104 102 103 105 103 102 102 103 104 105 107 107 106 105 103 100 99 99 98 95 92 88 82 76 69 60 52 48 44 40 37 35 34 34 34 35 36 38 41 43 44
86 87 88 89 89 89 89 87 84 80 77 73 67 59 50 43 35 30 27 23 21 20 18 18 18 17 17 16 18 24 26 27 43 74 96 102 102 99 89 65 68 98 103 99 103 101 100 101 101 102 103 104 103 101 100 96 92 88 84 83 83 82 78 73 68 64 60 56 52 48 44 40 37 35 35 34 35 35 35 37 40 41 43 44 45
86 89 91 92 91 91 88 85 80 74 68 60 52 44 37 32 29 25 22 20 19 19 18 18 18 17 17 19 21 31 40 37 32 44 62 71 72 68 62 63 83 101 100 100 101 100 102 102 102 101 97 90 83 79 77 75 74 72 71 71 70 67 62 58 55 52 49 46 43 40 38 36 36 35 35 36 36 38 40 41 42 42 42 44 48
87 89 90 90 88 85 81 76 70 62 53 46 39 34 30 26 24 21 20 21 20 19 20 19 19 23 28 30 37 49 61 63 54 47 45 49 57 65 76 89 98 99 99 101 101 101 101 97 91 83 76 71 69 71 71 71 69 67 67 67 64 61 56 52 48 45 42 40 39 38 37 37 36 37 37 39 41 42 43 43 43 44 45 48 52
84 84 85 83 78 73 68 62 55 47 41 36 32 28 25 22 21 21 21 21 21 20 20 20 28 44 55 62 70 81 91 95 92 87 83 84 89 95 99 100 101 101 102 100 98 96 91 86 83 81 81 82 81 77 72 65 60 59 64 66 64 61 54 49 44 41 40 39 38 38 38 38 38 40 42 43 44 44 45 46 48 49 50 53 56
73 72 71 67 61 55 51 46 41 37 33 30 27 23 22 22 22 22 22 22 22 22 22 27 46 69 86 97 104 106 107 106 103 101 101 102 102 101 100 99 98 95 92 87 84 83 83 84 88 91 89 83 76 69 61 54 50 53 60 61 60 56 49 44 41 40 40 39 39 39 40 41 43 44 45 45 47 49 51 54 56 57 55 54 53
56 54 52 48 45 42 39 36 32 30 29 26 24 22 22 24 24 23 24 24 24 26 28 38 64 91 105 110 110 108 106 103 102 102 103 104 103 100 99 95 89 84 85 85 82 80 81 82 81 80 76 71 66 59 52 47 48 52 55 55 52 48 43 41 40 41 41 41 42 43 45 46 47 47 48 50 52 55 59 62 64 64 60 54 51
43 42 40 38 36 34 32 31 32 32 30 26 25 26 27 26 26 25 25 27 30 33 38 57 86 104 107 106 104 102 102 101 102 103 104 106 105 103 102 98 96 96 99 102 99 95 92 89 82 76 73 69 59 51 47 48 52 55 54 50 46 42 40 41 42 42 43 45 46 48 48 48 48 49 51 54 57 59 61 61 60 58 57 55 54
36 35 33 34 33 35 38 41 44 41 34 29 29 31 30 28 27 27 30 36 40 43 52 73 99 107 102 104 104 100 99 100 102 103 103 103 103 104 104 104 105 106 106 108 106 101 97 91 80 72 68 62 52 47 49 52 54 52 48 44 41 40 41 42 45 47 48 49 49 49 49 49 51 53 56 57 58 57 56 56 57 57 58 58 58
30 29 29 31 34 41 50 56 57 48 37 34 34 33 29 29 30 31 40 51 55 61 70 83 96 100 96 96 96 95 96 99 101 101 101 103 104 104 106 107 106 106 107 105 97 90 85 79 71 64 57 52 47 47 49 50 49 45 43 41 40 41 43 46 50 51 50 50 49 50 51 53 56 57 58 58 57 58 58 59 60 62 63 64 65
27 27 26 26 32 44 57 71 72 57 43 38 36 33 29 31 33 36 52 68 72 78 88 93 95 95 94 93 92 95 98 100 102 102 102 106 107 105 106 106 103 105 104 95 84 79 75 69 62 55 50 48 47 46 47 47 44 42 41 40 41 44 48 52 53 52 50 50 51 53 54 56 57 57 58 60 61 62 63 63 64 65 68 71 72
27 27 25 25 34 46 63 84 84 60 44 39 35 32 31 34 35 39 58 76 81 87 95 97 98 99 99 99 99 100 102 102 103 103 102 104 105 105 104 103 103 101 92 81 78 74 67 59 52 49 49 48 47 46 46 45 42 42 42 41 44 48 52 53 51 50 50 52 53 54 55 56 57 59 61 62 63 63 64 65 68 72 76 79 80
28 28 26 27 36 42 56 80 83 59 43 38 34 33 34 36 38 41 58 77 88 95 98 98 100 101 102 102 101 101 102 101 100 101 101 101 103 105 104 105 103 95 85 80 76 66 55 50 49 50 50 48 48 47 45 43 43 43 43 44 48 51 53 51 50 51 52 53 55 55 57 59 61 62 62 63 63 65 66 68 70 73 77 80 83
27 27 28 31 36 38 44 59 63 49 39 35 34 36 37 40 43 43 53 76 94 100 100 100 100 100 101 101 100 100 100 101 101 102 104 105 105 105 102 98 92 86 82 77 65 53 50 53 54 52 50 49 48 45 43 44 45 45 46 49 52 53 51 50 50 52 53 55 57 59 62 63 63 64 64 64 65 65 66 67 69 71 71 74 78
26 28 30 32 35 39 39 39 39 37 35 36 37 38 39 43 48 44 46 66 92 102 99 100 101 100 101 101 100 102 102 101 101 100 100 97 92 85 80 75 70 70 68 61 53 51 53 54 54 53 51 50 48 46 47 49 48 48 50 53 54 51 50 51 53 55 57 60 62 64 65 64 65 65 64 63 61 61 62 64 66 68 70 72 72
27 28 30 32 35 41 40 34 33 35 35 38 39 40 42 44 47 46 43 53 81 103 102 100 102 101 101 102 101 100 99 95 92 88 81 74 69 65 63 62 60 59 58 54 54 54 52 52 54 55 54 52 51 52 52 51 50 53 55 55 52 50 51 54 56 59 62 65 65 65 65 65 65 65 63 63 62 62 63 64 65 67 69 69 67
30 30 30 33 37 41 38 34 36 37 36 39 41 41 43 44 44 46 45 46 64 89 97 97 99 99 99 100 97 96 95 91 85 77 68 63 61 57 54 55 56 58 59 57 54 54 54 57 59 59 57 56 57 56 53 53 56 58 56 52 51 52 55 59 63 66 67 67 67 67 68 68 67 68 68 68 67 66 64 63 64 66 66 66 65
33 33 33 34 36 38 38 36 38 38 38 39 40 42 44 44 43 44 45 45 49 59 68 71 75 77 79 80 77 77 78 76 73 68 60 54 51 47 48 54 61 66 63 57 53 55 60 64 65 64 63 62 60 57 57 60 61 58 54 52 54 58 63 67 70 70 69 70 71 72 73 72 72 72 71 70 69 66 64 63 64 65 65 65 64
38 36 35 35 37 38 38 38 39 39 39 39 40 43 44 43 43 42 43 44 45 46 48 49 51 51 53 54 55 57 61 63 61 54 49 48 54 60 63 62 63 63 58 54 57 61 65 68 68 67 66 63 60 61 64 64 59 55 55 56 60 64 69 71 71 71 73 75 76 77 75 74 73 70 68 67 67 66 65 65 66 67 68 66 62
41 39 37 37 38 39 39 40 41 40 39 38 39 40 42 42 43 43 43 43 44 45 45 44 43 43 42 42 46 53 58 58 52 48 52 60 67 71 65 56 56 59 57 60 65 69 70 70 69 68 65 64 66 69 67 61 56 58 62 63 65 68 71 71 72 74 77 79 79 77 75 74 72 69 67 65 66 67 67 67 70 71 68 63 55
41 39 38 38 39 40 40 41 41 40 39 38 38 39 41 42 42 43 43 44 45 44 43 42 42 42 41 41 44 49 51 51 53 56 59 57 54 54 53 53 59 61 62 68 73 74 72 70 67 65 66 70 74 69 62 59 62 68 69 67 67 69 71 71 73 77 80 80 79 77 75 74 72 69 67 66 66 67 68 69 70 67 61 55 46
39 38 38 38 39 40 40 41 42 42 41 40 40 40 40 41 42 42 44 46 46 45 46 51 50 46 42 41 40 41 41 43 49 51 49 49 53 54 55 60 64 63 66 73 75 72 70 68 66 67 73 77 73 64 62 66 71 73 71 67 66 67 68 69 71 76 81 80 78 76 75 74 71 69 67 67 68 68 69 69 65 59 53 46 38
37 36 37 38 39 40 40 41 42 41 41 40 40 40 40 40 41 43 44 45 45 47 53 59 55 45 38 37 35 37 40 40 41 46 51 60 70 66 60 64 68 68 71 74 71 69 68 66 69 75 80 76 68 66 70 74 74 74 70 65 62 61 62 65 71 79 83 81 78 77 76 74 71 69 68 69 70 70 68 64 59 53 46 39 37
36 36 38 39 39 39 38 38 38 37 37 37 38 39 39 40 41 41 41 41 40 40 44 47 44 37 34 35 34 37 42 40 44 58 65 66 69 67 66 72 75 75 76 74 70 68 67 70 79 83 79 71 70 74 75 74 72 69 65 60 57 58 62 68 77 84 86 82 79 77 76 74 72 71 71 71 71 68 63 59 55 48 42 40 44
36 37 38 39 38 37 36 35 35 35 35 35 36 36 35 36 37 37 36 36 35 35 35 35 35 35 34 34 34 38 42 44 56 73 76 71 70 69 70 77 80 80 78 72 69 69 73 82 87 81 74 73 76 77 74 71 67 63 60 58 58 61 68 76 85 90 87 82 80 78 77 75 74 73 74 72 68 64 61 58 51 45 45 48 48
38 38 38 37 36 36 35 34 34 34 34 34 33 33 33 33 34 34 34 34 34 33 34 34 34 35 35 36 38 43 51 60 74 85 83 75 70 66 68 77 80 78 74 70 70 76 85 89 82 74 75 78 78 75 71 67 64 62 61 62 64 69 76 85 93 93 89 84 83 82 78 76 76 76 74 69 64 61 59 54 48 47 51 51 44
40 39 38 37 36 36 35 35 34 33 33 33 32 32 33 33 34 35 35 35 35 34 35 34 34 35 37 41 43 47 56 64 69 75 77 74 70 69 72 78 77 73 70 71 76 84 88 81 74 75 80 80 77 73 69 67 67 66 67 69 71 76 84 91 94 91 88 88 87 84 80 80 80 76 71 65 63 62 57 49 47 51 51 45 35
42 39 37 36 35 35 35 34 34 33 32 32 32 33 34 34 35 35 35 35 35 35 35 35 35 35 37 41 42 43 52 59 61 68 75 72 71 75 79 78 74 70 71 75 82 84 79 72 75 81 83 79 77 73 69 70 71 70 73 75 76 82 90 91 88 85 87 90 89 86 86 86 83 76 69 66 65 62 55 50 52 52 44 35 27
41 39 37 36 35 35 35 35 34 34 33 33 33 33 34 35 35 35 36 36 36 36 37 37 36 36 37 39 40 42 49 60 73 88 90 80 76 80 82 79 73 72 76 81 81 76 72 75 83 85 83 80 77 73 72 74 74 74 77 78 79 87 92 89 86 87 90 92 91 90 91 88 82 78 73 69 66 61 55 54 55 49 36 27 23
42 42 41 40 39 37 36 36 35 35 34 34 34 34 34 35 35 35 35 35 36 36 38 38 36 36 38 39 40 44 53 70 90 102 102 99 97 91 84 81 79 80 83 83 77 74 78 84 87 85 84 81 77 77 79 79 79 80 81 80 85 92 92 89 91 94 95 94 93 95 94 87 82 80 74 70 68 63 59 59 54 42 30 25 23
50 50 49 46 44 41 39 38 37 37 37 37 36 36 35 36 37 37 37 37 36 36 36 37 36 36 38 41 43 47 62 83 98 103 102 105 105 94 83 82 84 84 84 81 77 80 87 88 87 87 85 81 80 84 86 84 86 87 85 86 93 97 94 92 96 98 97 97 96 96 94 89 85 80 74 72 72 67 64 61 49 35 28 26 26
62 59 56 52 49 46 44 42 41 41 41 40 40 39 39 39 39 39 39 39 38 38 38 38 38 37 39 45 48 54 69 88 97 96 94 94 92 85 82 84 84 82 81 79 81 88 91 88 88 88 84 83 90 93 91 91 93 91 89 92 98 99 97 98 101 100 99 100 100 98 94 90 86 79 76 77 76 71 66 56 41 30 28 28 28
68 64 60 56 53 50 47 45 44 45 45 44 44 44 44 44 43 42 42 41 40 40 39 38 39 40 43 48 54 62 75 88 90 86 83 81 79 79 81 84 83 79 79 82 87 91 89 87 89 87 84 91 100 99 96 95 95 94 94 96 99 100 100 103 104 102 102 103 102 99 96 90 83 79 80 81 76 71 63 48 34 30 31 31 31
68 63 59 56 53 49 47 48 48 48 49 49 49 50 50 49 48 47 46 44 43 42 41 40 40 42 45 50 57 65 73 78 78 76 75 74 75 78 82 82 78 77 81 87 88 88 89 92 90 84 84 96 104 101 97 96 96 97 97 97 101 102 103 107 108 105 105 104 101 99 95 87 82 83 84 81 75 68 55 39 31 32 34 34 34
63 58 54 51 49 49 50 52 53 53 54 54 54 55 55 55 54 52 50 48 47 45 43 42 42 43 47 52 58 64 67 67 68 70 73 76 80 81 80 77 75 79 86 88 86 88 94 94 86 79 85 99 103 99 96 97 98 99 99 101 105 104 105 110 111 108 107 103 100 99 92 86 86 88 85 80 73 61 45 33 32 35 37 37 36
57 52 50 49 50 54 56 57 58 59 59 60 59 59 59 58 55 53 52 51 49 46 45 44 43 45 48 53 57 61 62 62 65 71 75 78 80 77 74 75 81 87 88 87 88 93 97 91 79 76 86 96 97 95 95 97 100 102 104 108 106 103 106 113 114 111 106 102 101 98 91 90 93 90 83 78 67 51 37 32 34 38 39 38 37
57 52 52 56 59 61 61 62 63 64 64 63 62 61 60 58 55 54 53 52 50 48 46 45 45 47 52 57 58 58 58 61 68 75 77 75 72 70 72 80 88 89 87 88 92 97 96 86 76 78 87 93 95 98 101 103 105 105 106 107 104 104 111 116 114 109 105 103 101 96 93 97 96 88 81 73 57 41 33 33 37 39 40 39 40
59 56 59 62 62 62 62 65 66 67 66 64 63 62 60 57 55 54 53 53 50 48 45 43 44 49 54 56 54 53 58 65 71 74 73 70 68 70 78 88 91 89 87 90 94 93 89 84 82 86 93 96 98 103 105 105 105 104 104 104 103 108 117 118 112 106 104 105 100 95 98 100 94 85 77 63 45 35 33 36 39 40 39 39 42
62 61 62 61 61 64 67 69 70 69 68 66 64 63 61 58 56 54 53 52 50 47 43 41 42 47 49 48 48 54 63 69 69 68 67 69 72 78 88 94 91 86 88 92 90 85 83 86 91 95 99 102 104 107 106 104 102 102 103 104 106 111 117 116 110 106 106 104 99 98 101 97 88 80 69 51 38 33 34 39 41 40 40 42 45
68 68 68 66 69 73 74 75 75 75 73 71 68 65 63 60 57 54 53 52 49 45 41 40 42 45 45 45 49 57 63 64 63 64 67 74 82 89 95 95 89 89 94 95 90 88 90 94 96 97 101 107 109 108 105 103 102 104 105 106 109 113 115 113 110 108 107 102 100 102 98 90 83 74 57 41 34 34 37 42 44 42 42 46 49
73 76 79 80 83 84 83 84 85 83 79 75 71 68 65 62 59 58 56 51 46 42 40 41 44 47 49 52 54 57 59 60 63 69 77 87 95 99 99 95 92 93 95 93 91 92 95 95 95 98 105 108 106 105 104 104 107 110 108 108 112 114 113 111 109 107 104 102 103 101 92 84 77 63 46 36 33 36 41 45 45 44 46 49 53
77 84 90 93 94 93 92 93 93 89 85 81 77 73 69 65 62 60 56 50 45 44 44 45 48 51 54 56 57 58 61 66 73 81 90 99 104 103 100 99 98 97 96 93 93 94 94 95 99 105 108 107 105 106 107 108 110 110 107 109 113 110 106 106 106 104 103 104 102 95 85 78 68 51 39 34 33 38 45 46 45 47 50 52 54
84 89 94 96 96 97 97 96 94 92 89 85 81 77 72 68 64 60 54 49 47 48 49 50 52 54 55 58 61 65 71 79 86 93 99 104 105 104 103 103 103 102 98 93 92 94 97 100 103 107 109 108 107 108 108 109 109 108 107 107 105 100 99 102 104 103 104 103 98 89 80 71 57 43 36 33 35 41 46 46 47 51 54 53 51
94 93 93 94 96 97 97 95 94 93 90 86 83 81 77 71 64 59 53 50 50 51 52 54 56 57 60 64 70 76 82 89 95 99 100 101 101 102 105 106 106 104 99 95 97 100 101 101 105 108 109 108 107 105 105 106 106 105 102 95 90 93 100 104 103 103 104 100 91 82 74 62 49 39 34 34 39 45 48 48 50 54 56 52 46
102 99 98 98 100 101 100 97 95 92 90 89 89 86 80 73 66 60 55 53 53 54 56 59 61 63 68 73 78 83 87 90 94 95 95 96 99 103 106 107 104 101 100 101 102 100 97 99 105 107 105 102 99 98 100 102 100 94 86 78 82 95 103 102 101 102 100 93 84 76 67 55 43 36 34 36 43 47 48 51 54 55 54 49 42
106 105 104 104 104 104 99 95 95 93 90 93 96 91 82 75 69 63 58 57 58 60 62 65 67 71 76 79 81 83 86 88 90 91 92 97 102 105 106 104 101 98 99 101 98 94 94 99 102 100 95 92 92 94 96 94 85 74 68 72 85 97 99 99 101 100 93 86 80 72 61 49 39 35 35 40 46 47 47 51 55 53 49 44 42
103 104 105 106 108 107 100 95 94 92 88 90 95 92 84 76 71 66 63 63 65 66 69 71 74 78 80 81 82 84 86 89 91 92 97 103 105 104 103 103 100 96 94 93 91 89 92 96 93 88 85 86 89 90 85 74 63 59 66 79 90 95 96 99 100 94 87 82 77 68 55 44 37 35 37 44 49 50 49 51 52 49 44 42 47
100 101 104 106 108 109 105 99 95 93 92 94 96 91 83 76 72 69 68 69 70 73 76 77 79 80 80 82 85 88 90 94 98 101 106 107 104 102 103 101 96 89 86 87 87 87 87 86 84 82 84 84 81 72 61 54 55 63 74 84 89 93 98 99 94 87 83 80 73 62 49 40 36 37 41 47 52 52 51 50 48 44 41 44 54
Wind_Speed
52 52 52 53 53 53 54 55 55 56 56 56 56 56 56 55 55 54 54 54 55 55 56 56 57 57 57 56 55 51 48 46 44 41 40 40 41 42 43 44 45 45 45 45 45 46 47 48 49 51 52 52 53 53 54 54 55 56 56 57 58 59 60 62 64 66 67 68 69 71 72 74 76 78 79 79 78 77 76 75 74 72 70 69 67
54 54 54 54 54 54 55 55 56 57 57 57 57 56 56 55 54 54 54 55 56 56 57 58 58 58 58 57 54 50 45 42 39 38 38 38 39 40 41 43 44 45 45 45 45 46 47 48 49 51 52 53 53 54 55 55 56 56 57 58 59 60 62 64 65 67 69 70 70 72 73 74 76 77 77 77 77 76 75 73 71 70 69 68 66
55 55 55 55 55 56 56 56 57 57 57 57 57 56 55 55 54 55 56 56 57 58 58 58 58 58 58 56 54 49 45 42 39 38 39 40 41 43 43 44 46 46 46 46 46 47 48 49 50 51 52 53 54 55 55 55 55 56 57 58 59 61 62 65 67 68 70 71 72 72 73 73 73 74 74 75 75 74 73 71 70 68 68 67 66
57 56 56 57 57 57 57 57 57 58 58 57 56 55 55 55 55 56 57 58 58 59 58 58 58 57 56 55 52 48 45 44 44 41 40 40 42 44 46 48 49 49 48 48 49 49 50 51 52 53 54 54 55 55 54 54 55 55 56 57 59 61 63 65 67 68 69 71 71 72 72 72 72 72 72 73 73 72 71 70 69 68 67 67 66
58 58 58 58 58 58 58 58 58 58 57 56 55 55 55 55 57 58 58 59 59 58 57 56 56 55 54 52 50 46 44 45 46 46 45 44 45 46 48 50 51 50 50 50 51 51 52 52 53 53 53 53 53 52 52 53 53 54 55 56 57 59 61 63 65 67 69 70 70 71 71 72 72 73 72 71 71 70 69 68 68 67 67 66 66
59 59 59 59 58 58 58 58 57 57 56 55 55 55 56 57 58 59 58 58 58 57 55 54 54 52 51 49 47 44 43 43 46 48 49 50 49 48 48 49 49 49 49 50 51 51 51 51 51 50 50 50 50 50 50 51 52 53 54 56 57 59 60 62 64 66 67 68 69 70 71 71 72 72 71 70 70 70 69 68 68 67 66 65 64
60 59 60 59 59 58 57 57 56 56 55 55 56 56 57 58 58 58 57 56 56 55 53 52 50 48 46 44 42 41 41 42 43 46 47 48 47 46 45 45 46 47 48 49 49 48 48 47 47 47 47 47 47 48 49 50 52 54 55 57 58 59 61 62 63 65 66 68 69 70 70 70 69 69 69 69 70 70 70 69 68 66 65 64 63
60 59 59 58 58 57 56 57 57 57 56 56 57 57 57 57 57 56 55 54 53 52 50 47 45 42 40 39 38 38 38 39 39 40 40 41 41 41 41 42 43 44 45 45 44 44 44 44 45 45 46 46 48 49 51 53 54 56 57 59 59 60 61 62 63 64 66 67 68 68 67 67 67 67 68 69 70 70 71 70 68 66 63 62 61
58 58 58 57 57 56 57 58 58 58 58 57 57 57 56 56 55 54 52 51 50 48 45 42 40 37 36 35 34 34 34 34 34 34 34 35 36 36 37 38 39 40 41 42 42 43 44 45 45 46 47 49 50 52 54 56 57 58 59 60 60 61 61 62 63 64 65 65 65 65 65 65 66 67 68 68 69 69 69 69 68 67 65 63 61
57 57 58 57 57 57 58 59 59 59 58 58 57 56 54 53 52 51 49 47 45 43 41 38 36 34 33 33 33 32 32 31 31 31 31 31 32 33 34 36 37 39 40 42 43 44 45 47 48 49 50 52 53 55 57 58 59 59 59 59 60 61 62 63 63 63 63 64 64 64 64 65 66 67 67 67 66 66 66 66 66 67 67 66 64
58 59 59 59 59 59 60 60 59 58 57 56 54 53 51 50 49 47 45 43 41 39 37 35 33 33 33 33 32 31 30 30 29 30 30 31 32 34 35 37 39 40 42 43 44 46 47 49 50 52 53 54 56 57 58 59 59 58 58 59 60 62 63 63 63 63 63 63 63 64 65 66 66 66 65 65 64 63 63 64 64 65 66 66 66
61 61 61 59 59 58 58 57 55 54 53 52 51 50 48 47 45 43 42 40 38 37 35 34 33 33 33 33 32 32 31 31 31 31 33 34 36 38 39 40 42 43 44 45 46 47 49 51 52 54 55 57 58 59 59 58 58 58 59 61 62 63 63 63 63 63 63 64 64 65 66 66 65 65 64 63 63 62 62 63 64 66 67 68 68
61 61 60 59 57 55 54 52 50 50 49 49 48 46 45 43 42 40 39 37 36 35 35 35 35 34 34 35 35 35 34 34 35 36 38 39 41 42 43 44 45 46 47 48 49 51 52 54 55 56 57 58 59 58 58 58 58 60 61 63 64 64 63 63 63 63 64 65 65 65 65 65 64 63 63 62 62 63 63 64 65 67 68 69 70
61 60 59 57 55 54 52 49 48 48 47 46 45 43 42 40 39 38 37 36 35 34 34 35 36 37 37 37 37 38 38 38 39 40 42 43 45 46 47 48 48 49 50 51 52 53 54 55 56 58 58 59 59 59 59 59 60 62 64 65 65 64 63 63 64 65 65 65 65 64 64 63 63 62 62 62 63 63 64 66 67 68 69 70 72
58 57 56 55 53 52 50 48 46 46 46 45 43 41 39 38 37 37 36 35 34 33 33 34 35 36 37 38 38 39 39 40 41 43 44 46 47 48 48 49 50 51 52 53 54 55 55 56 57 58 58 58 58 59 60 61 63 65 66 67 66 65 64 64 65 65 65 64 63 63 62 62 62 62 63 63 64 65 66 66 67 68 70 72 74
55 54 53 52 52 51 50 48 46 46 45 44 42 40 38 37 36 36 35 35 34 33 34 34 35 36 37 37 38 39 41 42 44 45 46 47 48 49 50 51 52 53 54 54 55 55 56 57 57 57 58 58 59 61 63 65 67 68 68 67 66 65 65 65 65 64 63 63 63 62 62 63 63 63 64 65 66 66 67 68 68 69 70 71 74
53 52 51 51 51 51 50 49 47 46 46 44 42 39 37 36 36 35 35 35 34 35 35 36 36 37 38 39 39 41 42 44 45 46 48 49 50 50 52 53 54 54 54 55 55 55 56 56 57 58 59 60 62 64 66 68 68 68 67 66 66 65 65 64 63 63 62 62 62 63 63 64 64 65 66 66 67 68 69 69 70 70 71 71 72
52 51 51 50 50 50 50 48 47 46 45 43 41 39 37 36 36 36 35 36 36 36 37 38 39 39 40 41 42 43 44 45 47 48 50 50 51 52 53 54 54 54 55 55 56 56 56 57 59 61 62 63 65 67 68 68 68 67 66 66 65 65 63 63 62 62 62 63 63 63 64 65 65 66 67 68 69 70 70 71 71 72 72 72 72
52 51 50 49 49 49 48 47 46 45 44 42 40 39 38 37 37 37 37 37 38 39 40 40 41 41 42 43 44 45 46 47 49 50 51 52 53 53 53 53 54 55 56 56 57 57 59 60 61 62 63 65 67 68 68 68 68 67 66 65 64 63 62 62 62 62 63 63 64 64 65 66 67 67 68 69 70 71 72 73 73 73 73 74 74
51 51 49 48 48 48 47 46 45 44 43 42 41 39 39 39 39 39 39 39 40 41 42 43 44 44 45 45 46 47 48 49 50 51 52 53 53 54 54 55 55 55 56 57 58 59 60 61 62 63 64 66 67 68 68 68 67 66 65 63 62 61 61 62 62 63 63 64 65 65 66 67 68 69 70 71 72 72 73 74 75 75 75 75 76
50 49 47 47 47 48 47 45 44 44 44 42 41 41 40 40 41 41 41 41 41 42 44 45 46 47 47 48 48 48 49 50 51 52 53 54 54 55 54 54 54 55 57 58 59 60 60 61 62 63 65 66 67 68 67 66 65 64 63 61 60 60 61 62 63 63 64 65 65 66 67 68 69 70 71 72 73 74 75 76 76 77 77 78 78
48 47 46 46 47 48 47 45 45 45 45 43 42 42 42 42 43 43 43 43 43 44 45 46 47 48 48 49 49 49 49 50 51 53 54 54 54 54 53 54 56 57 58 59 60 60 60 61 62 64 65 66 67 66 65 64 63 62 61 60 60 61 61 62 63 64 65 65 66 68 69 70 71 72 73 74 75 76 76 77 78 78 80 81 81
47 46 46 47 48 48 47 46 46 46 46 45 44 44 44 44 44 44 44 44 45 45 46 47 48 49 49 49 50 50 50 51 52 52 52 52 53 54 56 57 58 58 58 59 59 59 60 61 62 64 65 65 65 64 63 62 61 61 61 61 61 61 62 63 64 64 65 67 68 70 71 72 73 74 75 76 76 77 78 78 79 80 81 82 81
46 46 46 47 48 48 48 47 47 47 47 47 46 46 46 46 46 46 46 46 47 48 49 49 49 50 50 50 50 50 50 51 50 50 52 54 56 57 57 57 57 58 59 58 58 59 60 62 63 64 64 63 63 62 61 60 60 61 61 61 61 61 63 64 64 66 67 69 70 72 72 73 74 75 76 77 77 78 78 79 80 81 82 80 79
46 46 47 48 48 48 48 47 47 47 47 47 48 48 48 48 48 48 48 48 49 50 49 49 49 50 50 50 50 50 50 50 51 52 54 55 56 56 55 56 57 58 58 57 58 59 61 62 63 62 62 61 61 60 59 59 60 61 61 62 62 62 64 65 66 67 69 71 72 73 74 75 76 77 77 78 79 79 79 80 81 81 80 78 77
47 47 47 48 48 48 47 47 47 47 47 47 48 48 48 48 48 48 49 49 49 49 49 49 49 49 49 50 50 49 50 51 52 52 53 53 55 55 55 56 58 57 57 57 59 60 61 62 61 60 59 59 59 58 58 59 60 60 62 63 63 64 66 67 68 69 71 72 74 74 75 76 77 78 78 79 80 80 81 81 81 79 78 77 76
46 47 48 48 48 48 48 47 47 47 47 47 47 47 47 47 47 47 48 49 49 49 49 50 50 50 50 50 50 49 50 52 52 52 53 53 54 55 56 56 57 56 57 59 60 61 61 60 59 58 58 57 57 58 58 59 59 61 63 64 65 66 68 69 69 70 72 73 74 75 76 77 78 78 79 80 80 81 81 81 79 78 77 77 77
47 49 50 50 50 50 49 48 48 48 48 47 47 47 47 47 47 48 49 49 50 50 50 50 51 51 51 50 50 49 50 51 51 53 54 54 53 55 55 55 56 57 59 60 61 60 59 58 57 56 56 56 56 57 58 59 61 63 64 66 67 68 69 69 70 71 73 74 75 76 77 78 79 79 80 80 80 81 81 80 79 78 78 78 78
50 51 52 51 51 51 50 50 50 49 49 49 49 49 48 48 48 49 49 50 50 50 51 51 51 51 51 51 50 49 50 50 50 52 53 53 54 55 55 55 57 58 60 60 59 58 57 56 56 55 55 55 56 57 58 60 62 64 66 67 68 69 69 69 70 71 73 74 75 76 77 79 80 80 81 81 81 81 80 79 78 78 78 78 77
53 53 53 52 52 52 52 51 51 51 51 51 51 50 50 49 49 49 50 50 51 50 50 51 51 51 51 50 49 48 48 49 49 51 53 55 56 55 55 56 58 59 60 59 57 56 55 55 54 54 54 55 55 57 59 61 63 65 66 67 68 68 69 69 71 73 74 75 76 77 78 80 81 82 82 82 82 82 80 78 78 78 77 76 75
54 53 53 53 53 53 52 52 52 52 52 52 51 51 50 50 50 49 49 49 49 49 49 50 50 50 50 50 49 47 47 48 49 50 52 55 55 55 56 58 59 59 58 56 55 54 54 54 53 53 54 54 56 58 60 62 64 66 67 68 68 68 69 71 73 74 74 75 76 78 79 80 82 83 83 84 83 82 80 80 79 78 77 75 72
53 53 53 53 53 52 52 52 51 51 51 51 51 50 50 49 49 49 48 48 48 48 49 49 49 49 49 49 49 48 47 47 47 47 50 53 54 55 57 59 59 58 56 54 53 53 53 53 53 53 53 55 57 59 61 63 65 67 68 69 69 70 71 73 74 75 75 76 77 78 79 81 82 83 84 85 83 82 81 81 80 79 77 75 72
52 52 52 52 51 51 51 50 50 50 50 49 49 49 48 48 48 48 47 47 47 47 48 48 48 47 48 49 49 47 46 45 44 45 49 53 55 56 58 58 57 55 53 53 53 52 53 52 52 52 54 57 59 60 62 64 66 68 70 70 71 72 74 75 76 75 76 76 77 78 79 81 82 84 85 84 83 82 82 82 81 79 77 75 72
51 50 50 50 50 49 49 48 48 48 48 48 48 48 48 47 47 47 47 47 47 47 47 48 48 47 47 48 48 46 45 44 44 47 51 54 56 57 57 56 54 53 52 52 52 52 52 52 52 53 55 58 60 62 63 65 67 70 71 72 73 75 76 77 77 76 76 77 77 78 79 81 82 83 84 83 82 83 83 82 80 78 76 74 72
50 49 49 49 48 48 47 47 46 46 47 47 48 47 46 46 46 46 46 47 47 47 47 47 47 47 47 47 47 47 45 44 47 50 52 54 56 56 55 53 53 52 52 52 52 52 52 52 53 54 56 59 62 63 65 67 69 71 73 74 75 76 77 78 78 77 77 77 77 78 79 81 82 82 82 81 82 83 82 81 78 76 75 74 72
50 49 49 48 48 47 46 46 45 46 46 46 46 45 45 46 46 46 47 47 47 47 47 47 47 47 47 47 47 47 46 47 50 51 52 54 54 53 52 52 52 51 51 52 52 53 53 53 54 55 57 60 63 65 66 68 70 72 74 75 77 78 78 79 79 78 77 77 77 78 79 80 81 81 81 81 81 81 80 78 76 75 74 73 70
50 50 49 49 48 47 46 45 45 45 45 45 44 45 45 46 47 47 47 47 47 47 47 47 47 47 47 47 48 48 48 50 51 52 52 53 53 51 51 51 51 51 51 52 53 53 54 55 55 56 59 61 64 66 68 70 72 73 75 76 78 78 79 80 79 78 77 77 77 78 79 80 80 80 79 80 80 79 77 75 74 73 72 70 68
51 51 50 49 48 47 46 45 45 45 45 45 45 45 46 46 47 47 47 47 47 47 48 48 48 48 48 48 49 49 50 51 51 51 52 51 51 50 50 50 51 51 52 53 53 54 55 55 57 58 60 62 65 67 69 71 72 74 76 77 78 79 80 80 79 78 78 77 77 78 78 79 78 78 79 79 78 76 74 72 71 70 69 66 63
52 51 50 48 47 46 45 45 45 45 45 45 45 45 46 47 47 47 47 48 48 49 48 49 49 49 49 49 50 50 51 51 51 50 50 50 49 49 49 50 51 52 53 53 54 55 56 57 59 60 62 64 66 68 70 72 73 75 77 78 79 80 80 80 79 79 78 77 76 77 77 77 77 77 78 77 75 73 71 69 68 67 65 62 60
51 50 48 46 46 46 46 46 46 46 46 46 46 46 47 47 47 47 48 49 49 49 49 49 49 49 50 50 50 51 51 50 50 49 49 49 49 49 49 51 52 53 53 54 55 56 57 59 61 63 64 66 68 70 71 73 74 76 78 79 80 80 81 80 79 78 77 76 75 75 75 75 76 76 76 74 72 70 68 67 65 63 60 58 56
50 49 48 47 48 48 47 47 47 47 48 47 47 47 47 47 47 48 48 49 49 49 49 49 49 49 50 50 50 50 50 50 49 48 48 49 49 49 50 51 53 53 54 55 55 56 58 61 63 65 67 68 70 71 72 74 75 77 79 80 80 81 81 80 79 77 75 74 73 73 73 74 74 74 73 71 69 67 66 64 62 60 57 55 54
51 50 50 50 49 48 48 48 49 49 48 48 47 47 48 48 48 49 49 49 50 50 49 49 49 49 50 50 49 49 49 49 48 48 48 49 50 50 51 52 53 54 55 56 57 58 60 62 65 67 68 70 71 72 74 75 77 78 79 80 80 81 81 80 78 75 73 72 71 71 71 72 72 72 70 68 67 65 63 62 60 57 55 53 52
51 51 51 50 49 49 49 50 49 49 48 48 47 48 49 49 49 49 49 50 50 50 49 49 49 49 49 49 48 47 48 48 49 49 49 49 50 51 52 53 54 55 56 57 58 60 62 64 66 68 70 71 72 73 75 76 78 79 80 80 81 81 80 78 75 72 70 70 70 70 70 71 70 69 66 65 64 62 61 59 57 55 53 52 52
51 50 50 49 49 50 50 50 49 49 49 49 48 49 49 49 49 49 50 50 50 49 49 49 49 48 49 48 48 48 48 49 49 49 50 51 51 52 53 54 55 56 57 59 60 62 64 66 68 69 70 72 73 75 76 78 79 80 80 81 81 80 78 75 71 69 68 68 68 68 69 69 67 65 64 62 60 59 58 56 53 52 51 50 50
51 51 50 50 50 50 50 50 50 49 49 49 49 49 49 49 49 49 49 50 49 48 48 49 48 48 48 48 48 48 49 49 49 50 51 52 52 53 54 55 57 58 60 61 62 64 66 68 69 71 72 73 74 76 78 79 79 80 81 81 80 78 75 71 67 66 66 66 66 67 67 66 64 63 62 59 58 56 54 52 50 49 49 48 48
53 53 52 51 51 51 51 51 50 50 50 50 50 49 49 49 49 49 50 49 49 48 48 48 48 48 48 48 49 49 49 50 50 51 52 53 54 55 56 57 59 61 62 63 64 66 68 69 71 72 73 75 76 78 79 79 80 81 81 80 78 74 70 66 64 64 64 64 65 65 64 62 62 61 59 57 56 54 52 50 48 47 47 46 46
55 54 53 52 52 53 53 52 52 51 51 51 50 50 50 50 50 50 50 49 49 49 48 48 49 49 49 49 49 50 50 51 52 53 54 54 56 57 58 60 61 63 65 66 67 69 70 71 72 74 75 77 78 79 80 80 81 80 80 77 74 69 64 62 62 62 62 62 63 62 61 60 60 59 57 55 54 52 50 48 46 45 45 45 45
55 54 53 52 52 53 54 54 53 53 52 52 51 51 51 51 51 50 50 50 50 49 49 49 49 49 50 50 51 52 52 53 53 54 55 56 57 59 60 62 63 65 66 68 70 71 73 73 74 76 77 79 79 80 80 80 80 79 76 72 67 62 60 60 60 60 60 61 60 59 58 59 58 56 54 53 52 49 46 45 45 44 44 44 44
55 54 52 50 50 52 54 54 53 53 52 52 52 52 53 52 52 51 51 50 50 50 50 50 51 51 52 52 53 53 54 55 55 56 57 58 60 61 63 64 66 67 68 70 72 74 74 75 77 78 79 80 80 80 80 79 78 75 70 65 60 58 58 57 58 58 59 58 57 57 58 57 56 54 53 52 51 49 45 43 43 43 43 43 44
56 55 53 52 52 55 57 56 54 53 52 52 53 53 53 53 53 52 52 51 51 51 51 52 52 53 53 54 55 55 55 56 57 58 59 61 62 63 65 67 69 70 71 73 75 75 76 78 79 80 81 81 80 79 78 76 72 68 62 58 56 56 55 55 56 57 56 55 55 56 57 55 54 53 52 51 49 48 46 44 43 42 42 42 43
57 56 55 55 56 57 58 56 54 53 52 53 53 54 54 54 53 53 52 52 52 52 53 53 54 54 54 55 56 57 57 58 60 61 62 64 65 66 68 71 72 73 74 75 76 77 78 80 81 81 81 80 78 76 73 69 65 60 57 55 54 54 54 54 55 54 53 54 55 56 55 53 52 51 50 49 48 47 45 44 43 42 41 41 42
Wind_Direction
250 251 253 254 256 258 259 262 264 266 268 271 273 275 277 278 279 279 279 280 280 281 282 283 284 285 286 288 289 290 289 288 288 286 284 285 285 283 281 281 283 285 286 287 287 288 289 290 291 291 292 293 294 295 297 297 298 298 298 298 298 297 297 296 296 296 296 297 297 297 297 297 297 298 299 300 301 302 304 305 305 305 305 304 304
252 253 255 256 258 259 261 263 265 268 270 272 274 276 277 278 279 279 279 279 280 281 282 283 284 285 286 287 288 289 286 284 285 284 285 287 287 285 281 281 284 284 285 286 287 287 288 289 290 291 292 293 294 295 296 296 297 297 298 297 297 296 296 296 296 296 296 297 296 295 295 296 297 299 300 301 302 304 304 305 305 304 304 304 304
253 254 256 258 259 261 263 264 266 269 271 273 275 276 277 277 278 278 279 279 280 281 282 283 284 284 285 286 287 286 281 277 277 278 280 281 282 283 282 283 285 285 285 286 287 287 288 289 290 291 292 293 294 295 295 296 296 297 297 297 297 296 296 296 296 296 295 295 296 296 296 298 299 300 302 303 304 304 304 304 304 304 304 304 304
253 255 257 258 260 262 263 265 267 269 271 273 274 275 276 277 277 278 279 280 281 282 282 283 284 284 285 285 286 285 279 273 272 272 273 273 275 278 280 283 286 284 284 286 287 287 288 289 290 291 292 293 294 295 296 296 297 297 297 297 296 296 296 295 295 296 296 297 298 299 300 301 301 302 303 303 303 304 304 304 304 304 304 303 303
254 256 258 259 261 263 265 266 268 270 271 272 273 274 275 277 278 279 280 281 282 282 283 283 284 284 284 285 285 284 279 274 270 269 270 271 273 276 278 282 283 283 284 285 287 288 289 290 291 292 293 295 296 296 296 296 296 297 297 296 296 296 297 297 298 298 299 300 300 301 302 303 303 304 304 303 303 303 303 303 303 303 302 302 302
254 256 258 260 262 264 265 267 268 269 270 271 272 274 275 277 278 280 281 282 283 283 284 284 284 285 284 284 284 282 279 274 270 269 269 271 274 276 278 280 281 282 284 285 287 288 290 291 292 294 295 295 295 295 295 295 296 297 297 298 299 299 299 300 300 300 301 301 302 302 303 303 304 304 304 304 303 303 303 302 301 301 301 301 301
254 256 258 260 262 263 265 266 267 268 269 271 272 274 276 278 279 280 281 282 282 283 284 285 285 285 285 284 284 282 279 274 272 271 271 273 276 278 279 280 281 282 284 285 287 289 291 292 293 293 294 294 294 294 295 297 298 299 300 301 301 301 301 301 301 302 302 302 303 303 303 304 304 304 303 303 303 303 302 301 301 301 302 302 301
254 256 258 259 261 262 264 265 266 268 270 272 273 275 277 278 279 280 280 281 282 282 283 284 284 284 284 285 284 281 278 275 274 274 274 276 277 278 279 280 281 283 285 287 288 290 291 291 292 293 293 294 295 296 297 299 301 302 302 302 301 301 301 302 302 303 302 302 303 303 303 303 303 303 303 303 302 302 303 303 303 303 303 302 302
255 256 257 259 261 262 264 266 267 269 271 273 274 275 276 277 278 279 280 280 281 282 282 281 281 281 283 283 281 278 276 275 276 277 278 279 280 281 283 284 286 287 288 289 290 291 291 292 293 293 294 294 295 297 299 301 302 302 302 301 301 301 302 303 303 303 303 303 303 303 303 303 303 303 303 303 303 304 304 305 305 305 304 304 303
255 257 258 260 262 263 265 266 268 270 271 272 274 275 275 276 277 278 279 279 279 279 279 278 277 277 278 278 276 275 275 276 278 280 282 283 285 287 288 289 290 290 291 291 292 293 293 293 293 293 294 295 297 299 301 302 302 302 302 302 302 302 303 304 304 304 303 303 303 303 303 304 304 304 305 305 305 305 305 305 305 305 305 305 305
256 257 259 260 262 264 265 267 269 270 270 271 272 273 274 275 276 277 277 277 277 276 275 274 273 272 272 273 274 275 277 279 280 282 283 285 286 288 289 290 291 292 293 293 293 293 293 293 294 295 296 298 300 301 302 302 302 302 302 302 303 304 305 306 305 305 305 305 305 305 306 306 306 306 306 305 305 305 304 304 304 303 303 304 304
255 257 258 260 262 263 265 266 268 269 269 269 270 272 273 274 275 275 275 275 275 273 271 269 269 269 270 272 274 276 278 280 281 282 283 285 287 288 289 291 293 294 294 294 293 293 294 295 297 298 299 300 302 302 302 302 302 303 303 304 306 307 307 307 307 306 307 308 308 308 308 308 308 307 306 306 305 305 304 304 304 304 304 304 304
254 255 256 258 259 261 263 265 267 268 268 268 269 271 273 273 273 273 273 273 273 272 270 268 267 268 270 272 274 275 277 278 280 281 283 285 286 288 290 291 293 294 294 294 295 295 296 297 299 300 301 302 302 302 302 302 303 305 306 307 308 309 309 309 309 309 310 310 310 310 309 308 307 307 306 306 306 305 305 305 305 305 305 305 305
253 254 255 257 258 259 261 262 265 267 268 268 269 271 272 272 272 271 271 272 272 272 271 270 269 269 271 272 273 274 276 277 278 280 282 283 285 286 288 290 292 293 293 294 295 296 297 298 300 301 302 302 302 301 302 303 306 307 309 310 310 311 311 311 311 311 311 311 310 310 308 308 307 307 306 306 306 305 305 305 305 305 305 305 304
252 254 255 256 257 257 258 260 263 266 267 268 269 270 270 270 269 269 269 270 271 271 272 272 272 271 271 272 273 274 274 276 278 279 281 282 283 285 287 289 291 292 293 294 296 297 298 300 301 302 301 301 301 302 304 306 308 309 311 312 312 313 313 313 312 311 311 310 309 308 308 307 307 307 307 306 306 305 305 305 305 305 305 305 305
251 252 254 255 256 256 257 259 261 264 265 267 268 268 268 268 268 268 268 269 269 270 271 271 272 272 272 272 273 273 274 276 277 279 281 282 284 286 288 290 291 292 294 295 297 298 300 302 302 302 301 302 303 305 307 309 310 311 312 313 313 313 313 312 311 311 310 309 309 308 308 308 308 307 307 306 306 305 305 305 305 305 304 304 305
249 251 253 254 255 256 257 258 259 262 264 265 265 266 266 266 267 267 266 266 267 267 268 268 268 269 270 271 272 273 274 276 278 280 282 284 286 288 289 290 292 293 295 296 298 300 301 302 302 302 303 304 305 307 309 311 312 313 313 313 313 313 312 312 311 310 310 309 309 309 309 309 308 307 307 306 306 305 306 305 305 305 304 304 304
248 249 250 252 254 256 257 258 259 261 262 263 262 263 263 264 266 266 265 264 264 265 265 265 266 267 268 270 272 274 276 278 280 282 284 285 287 288 290 291 293 294 296 297 298 300 301 303 304 304 305 306 308 310 311 312 312 312 312 312 312 312 312 311 311 310 310 310 310 310 309 309 308 308 307 306 307 307 307 306 306 306 305 305 305
246 247 248 250 252 254 256 258 258 259 261 261 260 260 262 263 264 266 265 264 263 263 264 265 267 268 270 272 274 276 278 280 282 284 285 287 288 290 291 293 294 296 297 297 298 301 303 305 305 306 307 308 310 311 312 312 311 311 311 312 312 312 312 311 311 311 311 311 310 310 310 309 308 308 308 308 308 308 308 307 307 307 306 306 306
245 246 248 249 251 252 254 255 256 258 259 259 259 259 261 263 264 265 266 265 264 264 265 268 270 272 273 275 277 279 281 282 284 286 287 288 290 292 293 295 295 296 297 298 300 303 305 306 306 307 308 309 310 311 311 311 310 310 311 312 312 312 312 311 311 311 311 311 311 310 309 309 309 309 309 309 309 309 309 308 308 308 307 307 307
246 247 248 248 249 251 252 253 255 256 258 258 258 259 261 263 265 265 266 266 266 267 268 270 272 274 276 277 279 281 283 285 286 287 289 290 292 294 295 295 296 297 299 301 303 305 305 305 306 307 308 309 310 310 310 310 310 310 311 312 312 312 312 312 312 312 312 311 311 310 309 309 310 310 310 310 310 310 310 310 310 309 309 309 309
248 249 249 249 249 250 251 252 253 255 257 258 258 260 261 263 265 266 266 267 268 269 271 272 274 276 277 279 281 283 285 286 287 289 291 293 294 295 296 296 298 299 300 302 304 304 304 305 306 307 308 309 309 309 309 310 310 311 311 312 312 312 312 312 312 312 311 311 310 310 310 310 310 310 311 311 311 311 311 311 311 311 311 310 309
248 248 249 249 249 251 252 252 253 255 256 258 259 260 262 264 266 266 267 268 269 270 272 274 275 277 279 280 282 284 285 287 288 290 292 294 296 297 297 298 299 300 300 302 302 302 303 305 306 307 308 308 309 309 309 310 310 311 311 311 312 312 312 312 312 311 311 310 310 310 310 311 311 311 311 312 312 313 313 313 312 312 311 311 310
247 247 248 249 250 251 252 253 254 255 257 258 260 261 263 264 265 266 268 269 270 272 273 275 277 278 280 281 283 284 286 287 288 290 292 294 295 296 296 297 298 298 299 300 300 301 303 305 306 307 308 308 308 309 309 310 310 311 311 311 312 313 312 312 311 311 311 310 310 310 311 311 311 312 312 313 314 314 314 314 313 312 312 312 312
245 246 247 248 250 251 252 253 255 256 257 259 260 262 263 264 265 267 268 269 271 273 275 277 278 280 281 282 283 285 287 288 289 290 291 292 292 293 294 296 297 297 298 298 299 301 303 304 306 307 307 308 308 309 309 310 310 311 311 312 312 312 312 312 312 311 311 311 311 311 311 311 312 313 314 314 315 315 315 314 314 314 314 314 314
244 246 248 249 251 252 252 253 254 256 258 259 261 262 263 265 266 267 269 270 272 274 276 278 279 281 281 283 285 286 287 288 290 290 290 291 291 292 294 296 296 296 297 298 299 302 303 305 306 306 307 307 308 308 309 310 310 311 311 312 312 312 312 312 312 312 312 311 311 312 312 313 313 314 315 316 316 316 316 315 315 316 316 316 316
245 247 248 250 251 252 253 254 255 257 258 260 261 262 263 265 266 268 269 271 273 274 276 278 280 281 283 284 286 286 287 289 291 291 290 290 291 293 295 296 296 297 298 299 301 303 304 305 306 306 307 307 308 309 309 310 310 311 311 312 313 313 313 314 314 313 312 312 312 313 313 314 315 315 316 316 316 317 317 317 318 318 318 318 318
246 247 248 249 251 252 254 255 256 258 259 260 261 262 263 265 267 269 271 272 274 276 277 279 281 282 283 284 285 286 286 287 288 288 288 287 289 292 294 294 295 297 299 300 302 303 304 305 306 306 307 307 308 309 309 310 311 311 312 313 314 315 316 316 315 314 313 313 314 314 315 315 316 316 317 317 317 318 319 319 319 320 320 320 319
245 246 248 249 251 253 255 256 258 259 260 261 262 263 265 266 268 270 272 273 275 277 278 279 281 282 283 283 284 284 284 285 285 286 286 286 288 291 293 293 295 297 299 301 302 303 304 305 305 306 307 307 308 308 309 311 312 313 314 315 316 317 318 318 316 314 314 315 315 315 316 316 317 317 317 318 319 320 320 320 321 321 321 320 318
244 246 248 250 252 254 255 257 258 259 260 262 263 265 266 268 269 270 272 274 275 277 278 278 279 280 282 283 284 284 284 285 285 286 286 288 290 291 293 294 296 298 299 301 302 303 304 304 305 306 306 307 307 308 310 312 313 315 316 317 318 320 320 318 316 315 315 316 316 316 317 317 317 318 318 320 321 321 321 322 322 322 321 319 318
243 245 247 249 251 253 255 256 258 260 261 263 264 266 267 268 269 271 272 274 275 276 276 277 279 280 282 283 284 285 285 286 287 287 288 288 290 293 295 296 297 299 300 301 302 303 303 304 305 305 305 306 307 309 311 313 315 316 318 318 320 321 319 317 316 317 317 317 317 317 318 318 318 319 320 321 322 322 323 323 323 322 321 320 319
243 245 247 249 251 253 255 257 259 261 262 263 264 266 267 268 269 271 272 273 274 275 276 277 278 280 281 282 284 286 286 287 289 289 288 288 290 294 296 297 298 299 300 301 302 303 303 303 304 304 304 306 308 310 312 314 316 317 318 320 321 321 319 318 318 318 318 317 317 318 318 318 319 320 321 322 322 323 324 324 323 322 321 321 321
246 247 249 250 252 254 256 258 260 262 263 264 265 266 266 268 269 270 271 272 272 273 275 276 277 279 280 281 283 285 286 287 287 286 285 287 290 293 296 296 297 298 299 300 301 302 302 303 302 302 304 306 308 310 313 315 316 318 319 320 321 320 319 319 319 319 318 318 318 318 318 319 319 320 321 322 323 324 324 324 323 323 323 322 323
247 248 250 251 252 254 256 257 259 261 263 264 265 265 266 267 268 269 270 270 271 272 274 275 277 278 279 281 282 283 285 285 283 282 283 287 290 293 295 295 296 297 299 300 301 301 301 301 301 301 304 306 308 311 313 314 316 317 318 319 320 319 319 320 320 319 318 318 318 318 319 319 319 320 321 322 323 324 324 323 323 323 323 324 324
246 248 249 251 253 254 255 257 258 260 261 263 264 266 267 267 268 268 269 270 271 272 274 275 277 278 279 280 281 282 283 282 281 282 283 286 289 291 293 294 295 297 298 299 300 300 300 300 300 301 304 307 308 310 312 314 315 316 317 318 319 319 319 320 319 319 318 318 318 318 319 319 319 320 321 323 323 323 323 323 323 324 324 324 325
246 247 249 251 252 254 256 257 259 260 262 264 266 267 268 268 269 269 270 271 273 274 275 276 278 278 279 280 280 282 282 281 282 283 284 285 288 290 291 293 295 296 298 298 298 299 298 299 300 302 305 306 308 310 312 313 314 315 316 317 318 318 319 319 319 319 318 318 318 318 318 318 319 320 322 322 323 322 322 323 324 324 324 325 325
246 247 249 250 252 255 257 259 261 262 264 265 267 268 269 270 271 272 273 274 275 276 277 278 278 278 279 280 281 282 282 282 283 284 285 286 288 290 292 293 295 296 297 297 298 298 298 299 300 303 304 306 307 309 311 312 313 314 315 316 317 318 318 318 318 318 318 318 318 318 318 318 319 320 321 322 322 322 323 324 324 324 324 325 326
246 247 249 251 253 256 258 260 261 262 264 265 267 268 270 271 273 274 275 276 276 276 277 278 278 279 280 281 282 282 283 284 285 285 285 287 288 290 292 293 294 295 296 297 298 297 297 299 301 302 304 305 307 309 310 311 312 313 314 315 316 317 317 318 318 318 318 317 317 317 317 318 319 320 321 321 321 322 323 324 324 324 324 325 327
247 249 250 253 255 256 258 259 260 261 263 265 267 268 270 271 272 274 275 275 276 276 277 278 279 280 281 282 283 283 284 284 285 286 286 287 288 290 292 293 294 295 297 297 297 297 297 299 300 302 303 305 307 309 310 311 312 313 314 315 315 316 317 317 317 317 317 317 316 316 317 318 319 320 321 320 320 322 323 324 324 324 324 325 328
249 250 252 253 254 255 256 258 260 262 263 265 266 267 269 270 271 272 273 274 276 277 278 279 280 281 282 282 283 283 284 285 285 286 286 287 288 290 292 293 294 295 296 296 296 296 298 299 301 303 304 306 308 309 310 311 312 313 313 314 315 315 316 316 316 316 316 316 316 316 317 318 318 319 319 319 320 322 323 323 324 324 324 327 329
250 251 252 253 254 255 258 260 261 263 264 266 267 268 268 269 270 271 272 274 275 277 278 279 281 281 282 282 283 284 284 285 285 285 286 288 289 291 292 293 294 295 295 295 295 296 298 300 302 304 306 307 309 309 310 310 311 312 312 313 314 314 315 315 315 315 315 315 315 316 316 317 318 318 318 319 321 322 323 324 324 325 326 328 330
251 252 253 254 255 258 260 261 263 264 265 267 267 267 268 268 269 270 272 273 275 276 278 280 281 281 281 281 282 283 284 284 285 286 287 288 290 291 292 293 293 294 294 294 296 297 299 300 302 304 306 308 308 308 309 310 310 311 311 312 313 313 314 314 314 314 314 314 315 315 315 316 317 317 318 320 322 323 324 324 325 326 328 330 331
251 253 255 257 258 260 262 263 265 266 267 267 267 267 267 268 270 272 273 274 276 277 278 279 279 280 281 281 282 283 283 284 285 287 288 289 290 291 292 292 292 293 294 295 296 298 300 301 302 304 306 307 307 307 308 308 309 310 311 311 312 312 313 313 313 313 313 313 314 315 315 316 316 317 319 321 322 323 324 325 326 327 329 331 332
251 253 256 258 260 261 263 264 265 266 266 267 267 268 269 270 272 274 275 276 277 277 278 278 279 280 281 282 283 283 284 285 286 287 288 289 290 291 291 292 293 293 294 295 297 298 299 301 303 304 305 305 305 306 307 308 308 309 309 310 311 312 312 312 312 312 312 313 313 314 314 315 315 317 320 322 323 324 325 325 326 328 330 331 333
251 253 255 258 260 262 264 264 265 266 267 267 268 269 270 272 274 275 276 276 277 277 277 278 279 280 281 282 283 284 285 286 287 287 288 289 289 290 291 292 293 294 294 296 297 298 299 301 303 304 304 304 304 305 306 307 307 308 309 309 310 311 311 311 311 311 312 312 313 313 314 315 316 319 321 322 323 325 325 325 327 329 330 331 333
251 253 255 258 261 262 263 263 264 265 265 266 268 269 271 272 273 274 275 276 277 277 278 278 279 280 281 282 283 285 286 287 287 287 288 288 289 290 291 292 293 294 295 296 297 298 300 301 303 303 303 303 304 305 305 306 307 307 308 309 309 309 309 309 310 311 311 312 312 313 314 316 318 320 321 323 324 325 325 326 329 330 329 330 333
254 255 257 260 261 262 262 263 263 264 265 267 269 270 271 272 273 274 275 276 276 277 277 278 279 280 282 283 284 285 286 286 287 287 288 288 289 290 292 293 294 295 296 297 298 299 300 302 302 302 302 302 303 304 305 305 306 306 307 308 308 308 308 309 309 310 310 311 312 313 315 317 319 320 322 323 325 325 326 327 329 329 328 330 333
257 258 260 262 264 264 263 263 263 264 267 269 270 271 272 273 274 275 275 276 276 277 278 279 280 281 282 283 284 285 286 286 287 287 288 289 290 291 292 293 294 295 296 297 298 299 300 301 301 301 301 302 303 303 304 304 305 306 306 307 307 307 307 308 309 309 310 311 312 314 316 318 319 321 322 324 324 324 326 327 327 327 328 331 334
256 258 259 261 262 262 262 262 264 266 268 269 270 271 272 273 274 275 275 276 276 277 278 279 280 281 282 283 284 286 286 287 287 288 289 290 291 292 293 293 294 295 296 297 298 299 300 300 300 300 301 302 302 303 303 304 304 305 305 305 305 305 306 307 308 309 310 312 314 316 318 319 320 321 323 324 323 323 325 327 327 327 330 333 336
255 257 258 258 258 259 261 264 265 266 267 267 268 270 272 274 275 275 275 275 276 277 278 279 280 281 283 284 286 287 287 288 288 289 290 291 291 292 293 293 294 295 296 297 298 299 299 299 299 300 301 301 302 302 302 303 303 303 303 303 303 304 305 307 308 309 311 313 316 317 318 319 320 322 324 324 323 323 325 327 327 329 333 336 337
255 256 257 256 256 259 262 264 266 266 266 266 267 270 271 273 274 274 275 275 276 277 278 280 281 283 285 286 287 288 288 289 289 290 291 291 292 293 293 293 294 295 297 297 297 298 298 299 299 300 300 300 301 301 301 302 302 301 301 301 302 303 305 306 307 309 313 315 316 317 318 319 321 323 324 323 322 323 324 326 327 330 334 337 337